Regional Weather Roundup
Issued by NWS Midland/Odessa, TX

Home | Current Version | Previous Version | Text Only | Print | Product List | Glossary On
Versions: 1 2 3 4 5 6 7 8 9 10 11 12 13 14 15 16 17 18 19 20 21 22 23 24 25 26 27 28 29 30 31 32 33 34 35 36 37 38 39 40 41 42 43 44 45 46 47 48 49 50
000
ASUS44 KMAF 300110
RWRMAF
MIDLAND AREA WEATHER ROUNDUP
NATIONAL WEATHER SERVICE MIDLAND TX
800 PM CDT FRI APR 29 2016

...IN SOUTHWEST TEXAS AND SOUTHEAST NEW MEXICO...

CITY           SKY/WX    TMP DP  RH WIND       PRES   REMARKS
ALPINE         CLEAR     71  14  11 W13G23    29.88R
ANDREWS        FAIR      74  14  10 W18G28    29.74R
ARTESIA        CLEAR     73  23  15 SW20G31   29.73R
BIG SPRING     CLEAR     75  22  13 W20G31    29.72R
CARLSBAD       CLEAR     73  17  12 W21       29.74R
DRYDEN           N/A     89  24   9 W13       29.62R
FORT STOCKTON  CLEAR     77  13   9 NW22G29   29.74R
GUAD PASS      CLEAR     62  14  15 SW26G44   29.84F
HOBBS          CLEAR     72  14  11 SW18G29   29.75R
MARFA          CLEAR     69  12  11 NW12      29.86F
MIDLAND AIRPK  CLEAR     78  12   8 W30G38    29.70F
MIDLAND INTL   CLEAR     78  12   8 W33G44    29.69S
ODESSA         CLEAR     77  11   8 W20G33    29.74R
PECOS          CLEAR     77  14   9 W15G23    29.73S
PRESIDIO       FAIR      82  19   9 NW17G24   29.71R
SEMINOLE       CLEAR     73  15  11 W18G25    29.74R
SNYDER           N/A     77  21  12 W14G25    29.67R
WINK           CLEAR     76  15  10 W18G30    29.73R
$$
...OTHER STATIONS IN TEXAS...

CITY           SKY/WX    TMP DP  RH WIND       PRES   REMARKS
ABILENE        CLEAR     77  46  33 W7        29.61R
AMARILLO       CLEAR     53  44  71 NW14      29.78R
AUSTIN         MOCLDY    80  74  81 S10       29.57R
BROWNSVILLE    CLOUDY    80  77  90 SE13      29.61S FOG
CORPUS CHRISTI CLOUDY    81  76  84 S21       29.60R
DALLAS FTW     CLOUDY    75  69  81 SE8       29.56R
DEL RIO        PTCLDY    84  67  56 E9        29.56R
EL PASO        FAIR      71  22  15 W16G31    29.81S
HOUSTON INT    CLOUDY    78  71  79 S16G23    29.65R
LUBBOCK        MOCLDY    68  40  35 N13       29.70R
SAN ANGELO     CLEAR     81  41  24 W10       29.63R
SAN ANTONIO    CLOUDY    83  73  72 SE13      29.57F
WACO           CLOUDY    78  71  79 S6        29.57R
WICHITA FALLS  NOT AVBL
$$
...OTHER LOCATIONS IN NEW MEXICO...

CITY           SKY/WX    TMP DP  RH WIND       PRES   REMARKS
ALAMAGORDO     MOCLDY    68  23  18 SW23G29   29.78S
ALBUQUERQUE    CLOUDY    56  32  40 W7        29.82R
CANNON AFB     PTCLDY    59  42  51 N16       29.75R
CLOVIS         MOCLDY    59  43  55 N13       29.77R
HOLLOMAN AFB   MOCLDY    70  26  19 W18G29    29.76R
ROSWELL        CLEAR     73  16  11 W16       29.71R
RUIDOSO          N/A     55  16  21 W13G20    29.87S
SANTA FE       LGT RAIN  49  32  52 SW10G17   29.81S
TRUTH OR CONSE PTCLDY    66  21  18 W13       29.79R
TUCUMCARI      CLEAR     55  44  66 E6        29.76F
$$



USA.gov is the U.S. government's official web portal to all federal, state and local government web resources and services.